Regional Weather Roundup
Issued by NWS

Home | Current Version | Previous Version | Graphics & Text | Print | Product List | Glossary Off
Versions: 1 2 3 4 5 6 7 8 9 10 11 12 13 14 15 16 17 18 19 20 21 22 23 24 25 26 27 28 29 30 31 32 33 34 35 36 37 38 39 40 41 42 43 44 45 46 47 48 49 50

000
ASUS43 KDTX 230610
RWRMI
MICHIGAN HOURLY REGIONAL WEATHER ROUNDUP
NATIONAL WEATHER SERVICE DETROIT/PONTIAC MI
200 AM EDT SAT AUG 23 2014

NOTE: "FAIR" INDICATES FEW OR NO CLOUDS BELOW 12,000 FEET WITH NO
SIGNIFICANT WEATHER AND/OR OBSTRUCTION TO VISIBILITY.

MIZ047>049-052>055-059>063-066>070-074>076-081>083-230700-
SOUTHEAST LOWER MICHIGAN

CITY           SKY/WX    TMP DP  RH WIND       PRES   REMARKS
ADRIAN         CLOUDY    72  65  78 E5        30.03F
6HR MIN TEMP:  72; 6HR MAX TEMP:  79;

ALMA             N/A     62  61  96 CALM      30.04F FOG
ANN ARBOR      MOCLDY    69  61  75 E3        30.02F
BAD AXE        FOG       62  62 100 CALM      30.06F VSB 1/4
6HR MIN TEMP:  61; 6HR MAX TEMP:  67;

DETROIT CITY   CLOUDY    71  61  70 E3        30.03F
6HR MIN TEMP:  71; 6HR MAX TEMP:  77;

DETROIT        CLOUDY    73  59  61 CALM      30.03F
FLINT          CLOUDY    70  62  76 E7        30.03F
6HR MIN TEMP:  70; 6HR MAX TEMP:  79;

GROSSE ILE     CLOUDY    72  64  78 N3        30.01F
HILLSDALE      MOCLDY    73  73 100 E6        30.03F FOG
HOWELL         CLOUDY    69  64  84 CALM      30.03F
6HR MIN TEMP:  69; 6HR MAX TEMP:  76;


CITY           SKY/WX    TMP DP  RH WIND       PRES   REMARKS
JACKSON          N/A     72  68  87 SE6       30.02F
6HR MIN TEMP:  72; 6HR MAX TEMP:  78;

LAMBERTVILLE   CLOUDY    72  66  83 CALM      30.02F
LANSING        CLOUDY    71  67  87 E5        30.03F
6HR MIN TEMP:  70; 6HR MAX TEMP:  77;

LAPEER         NOT AVBL
MASON          CLOUDY    69  67  92 CALM      30.03F
MONROE         MOCLDY    70  64  83 CALM      30.01S
MT. CLEMENS    CLOUDY    65  62  90 N6        30.02F FOG
6HR MIN TEMP:  65; 6HR MAX TEMP:  73;

PONTIAC        CLOUDY    68  60  75 CALM      30.04S
6HR MIN TEMP:  68; 6HR MAX TEMP:  76;

PORT HURON     CLOUDY    64  64 100 CALM      30.03F FOG
TRI CITIES       N/A     65  62  90 NE6       30.05F
6HR MIN TEMP:  65; 6HR MAX TEMP:  72;

YPSILANTI      CLOUDY    74  63  68 NE5       30.03F
6HR MIN TEMP:  73; 6HR MAX TEMP:  81;

$$
MIZ043>046-050>051-056>058-064>065-071>073-077>080-230700-
SOUTHWEST LOWER MICHIGAN

CITY           SKY/WX    TMP DP  RH WIND       PRES   REMARKS
BATTLE CREEK   CLOUDY    73  69  87 E6        30.02F
6HR MIN TEMP:  73; 6HR MAX TEMP:  79;

BENTON HARBOR    N/A     71  70  96 SE3       29.98S FOG
6HR MIN TEMP:  70; 6HR MAX TEMP:  76; 6HR PCP: TRACE;

BIG RAPIDS       N/A     63  62  96 CALM      30.05F
6HR MIN TEMP:  63; 6HR MAX TEMP:  74;

COLDWATER        N/A     74  72  94 CALM      30.00F FOG
6HR MIN TEMP:  73; 6HR MAX TEMP:  79;

HOLLAND          N/A     72  69  90 E6        30.01F
6HR MIN TEMP:  72; 6HR MAX TEMP:  81;

GRAND RAPIDS     N/A     70  69  97 E7        30.02F
6HR MIN TEMP:  70; 6HR MAX TEMP:  79;

KALAMAZOO        N/A     73  70  90 CALM      30.01S FOG
6HR MIN TEMP:  70; 6HR MAX TEMP:  80;

MARSHALL         N/A     70  69  98 CALM      30.01F
MUSKEGON       MOCLDY    72  67  84 E6        30.01F
6HR MIN TEMP:  72; 6HR MAX TEMP:  79;

$$
MIZ016>042-230700-
NORTHERN LOWER MICHIGAN

CITY           SKY/WX    TMP DP  RH WIND       PRES   REMARKS
ALPENA         FOG       60  60 100 CALM      30.07S VSB 1/4
6HR MIN TEMP:  60; 6HR MAX TEMP:  68;

BEAVER ISLAND  CLOUDY    67  65  93 E3        30.05S
6HR MIN TEMP:  67; 6HR MAX TEMP:  71;

BELLAIRE         N/A     67  65  91 CALM      30.03S
6HR MIN TEMP:  67; 6HR MAX TEMP:  78;

CADILLAC         N/A     64  62  93 CALM      30.06S
CHARLEVOIX     MOCLDY    72  65  80 E6        30.07R
6HR MIN TEMP:  72; 6HR MAX TEMP:  76;

FRANKFORT      CLOUDY    72  67  84 SE5       30.03R
GAYLORD          N/A     66  63  90 SE3       30.07F
6HR MIN TEMP:  66; 6HR MAX TEMP:  74;

GRAYLING       CLOUDY    69  65  86 E5        30.06F
6HR MIN TEMP:  69; 6HR MAX TEMP:  74;

HARBOR SPRINGS   N/A     69  64  84 NE7       30.05S
HOUGHTON LAKE  CLOUDY    65  62  90 CALM      30.06F
6HR MIN TEMP:  65; 6HR MAX TEMP:  73;

MANISTEE         N/A     68  64  88 E5        30.03S
OSCODA         FOG       62  62 100 CALM      30.05F VSB 1/2
PELLSTON         N/A     64  63  96 CALM      30.06S
6HR MIN TEMP:  64; 6HR MAX TEMP:  73;

TRAVERSE CITY  MOCLDY    70  66  87 SW3       30.02S
6HR MIN TEMP:  69; 6HR MAX TEMP:  75;

$$
MIZ007>008-015-230700-
EASTERN UPPER MICHIGAN

CITY           SKY/WX    TMP DP  RH WIND       PRES   REMARKS
KINROSS          N/A     63  61  94 CALM      30.08S
6HR MIN TEMP:  63; 6HR MAX TEMP:  72;

MACKINAC ISLAN   N/A     65  63  94 SE7       30.06S
6HR MIN TEMP:  63; 6HR MAX TEMP:  69;

NEWBERRY       CLOUDY    64  62  91 CALM      30.07R
S. S. MARIE      N/A     64  61  90 CALM      30.08R
6HR MIN TEMP:  64; 6HR MAX TEMP:  74;

$$
MIZ004>006-011>014-085-230700-
CENTRAL UPPER MICHIGAN

CITY           SKY/WX    TMP DP  RH WIND       PRES   REMARKS
MANISTIQUE     CLOUDY    68  64  88 E6        30.04S
6HR MIN TEMP:  66; 6HR MAX TEMP:  69;

ESCANABA       CLOUDY    68  63  83 NE5       30.02S
6HR MIN TEMP:  68; 6HR MAX TEMP:  70;

MENOMINEE        N/A     66  64  94 CALM      30.00F
6HR MIN TEMP:  66; 6HR MAX TEMP:  72;

SAWYER-GWINN   LGT RAIN  67  65  91 CALM      30.05S
$$
MIZ001>003-009>011-084-230700-
WESTERN UPPER MICHIGAN

CITY           SKY/WX    TMP DP  RH WIND       PRES   REMARKS
IRON MOUNTAIN  CLOUDY    68  66  93 SE7       30.02F FOG
6HR MIN TEMP:  68; 6HR MAX TEMP:  74;

HOUGHTON       CLOUDY    63  59  87 E7        30.04F
6HR MIN TEMP:  62; 6HR MAX TEMP:  64;

COPPER HARBOR    N/A     55  53  93 CALM      30.05S
6HR MIN TEMP:  53; 6HR MAX TEMP:  58;

$$

ABBREVIATIONS USED IN REMARKS
   TC - TEMPERATURE IN CELSIUS
  WCI - WIND CHILL INDEX
   HX - HEAT INDEX
  VSB - VISIBILITY



USA.gov is the U.S. government's official web portal to all federal, state and local government web resources and services.